Whidbey Island, WA

9:35 AM PDT on April 23, 2017 (GMT -0700)
Whidbey Island Naval Air Station

Weather History for KNUW - April, 2013

Change the Weather History Date:

Friday, April 19, 2013

  Actual Average Record
Temperature  
Mean Temperature 50 °F -  
Max Temperature 52 °F 53 °F 64 °F (2016)
Min Temperature 48 °F 40 °F 32 °F (2008)
Degree Days  
Heating Degree Days 16    
Moisture  
Dew Point 47 °F    
Average Humidity 91    
Maximum Humidity 100    
Minimum Humidity 82    
Precipitation  
Precipitation 0.28 in - - ()
Sea Level Pressure  
Sea Level Pressure 30.12 in    
Wind  
Wind Speed 8 mph (SW)    
Max Wind Speed 20 mph    
Max Gust Speed 28 mph    
Visibility 6 miles    
Events Rain    
Averages and records for this station are not official NWS values.
T = Trace of Precipitation, MM = Missing Value Source: NWS Daily Summary

Daily Weather History Graph

Daily Weather History Graph

Search for Another Location

Airport or City:

Trip Planner

Search our weather history database for the weather conditions in past years. The results will help you decide how hot, cold, wet, or windy it might be!

Date:

Astronomy

Apr. 19, 2013 Rise Set
Actual Time 6:12 AM PDT 8:07 PM PDT
Civil Twilight 5:38 AM PDT 8:41 PM PDT
Nautical Twilight 4:57 AM PDT 9:22 PM PDT
Astronomical Twilight 4:12 AM PDT 10:08 PM PDT
Moon 1:29 PM PDT (4/19) 3:00 AM PDT (4/19)
Length of Visible Light 15h 02m
Length of Day
13h 55m
Waxing Gibbous, 62% of the Moon is Illuminated
Apr 19
Waxing Gibbous
Apr 25
Full
May 2
Last Quarter
May 9
New
May 17
First Quarter

Hourly Weather History & Observations

Time (PDT) Temp. Dew Point Humidity Pressure Visibility Wind Dir Wind Speed Gust Speed Precip Events Conditions
12:53 AM 48.2 °F 46.4 °F 93% 30.15 in 10.0 mi ESE 11.5 mph 20.7 mph 0.02 in Rain Light Rain
12:56 AM 48.9 °F 46.9 °F 93% 30.17 in 7.0 mi ESE 13.8 mph 19.6 mph 0.02 in Rain Light Rain
1:56 AM 48.9 °F 46.9 °F 93% 30.15 in 6.0 mi ESE 9.2 mph - 0.04 in Rain Light Rain
2:56 AM 48.9 °F 46.9 °F 93% 30.14 in 6.0 mi East 3.5 mph - 0.04 in Rain Light Rain
3:56 AM 48.9 °F 46.9 °F 93% 30.12 in 6.0 mi East 5.8 mph - 0.05 in Rain Light Rain
4:56 AM 48.9 °F 46.9 °F 93% 30.10 in 6.0 mi East 6.9 mph - 0.01 in Rain Light Rain
5:13 AM 48.2 °F 46.4 °F 93% 30.08 in 6.0 mi East 6.9 mph - 0.00 in Rain Light Rain
5:56 AM 48.9 °F 46.9 °F 93% 30.09 in 6.0 mi East 6.9 mph - 0.00 in   Overcast
6:41 AM 48.2 °F 46.4 °F 93% 30.07 in 8.0 mi South 4.6 mph - 0.00 in Rain Light Rain
6:56 AM 48.0 °F 46.0 °F 93% 30.08 in 8.0 mi South 5.8 mph - 0.00 in Rain Light Rain
7:56 AM 48.0 °F 46.9 °F 96% 30.09 in 5.0 mi SSE 3.5 mph - 0.01 in Rain Light Rain
8:56 AM 48.9 °F 46.9 °F 93% 30.08 in 2.0 mi ESE 5.8 mph - 0.03 in Rain Light Rain
9:56 AM 48.9 °F 46.9 °F 93% 30.08 in 2.0 mi Calm Calm - 0.03 in Rain Light Rain
10:56 AM 48.9 °F 48.0 °F 97% 30.10 in 1.5 mi West 4.6 mph - 0.03 in Rain Light Rain
11:56 AM 48.9 °F 46.9 °F 93% 30.12 in 1.5 mi West 8.1 mph - 0.00 in Rain Light Rain
12:21 PM 48.2 °F 46.4 °F 93% 30.10 in 1.5 mi West 4.6 mph - 0.00 in Rain Light Rain
12:56 PM 50.0 °F 48.9 °F 96% 30.12 in 1.5 mi West 4.6 mph - 0.00 in Rain Light Rain
1:03 PM 48.2 °F 48.2 °F 100% 30.11 in 1.5 mi West 4.6 mph - 0.01 in Rain Light Rain
1:19 PM 50.0 °F 48.2 °F 94% 30.11 in 3.0 mi Calm Calm - 0.01 in   Overcast
1:34 PM 51.8 °F 48.2 °F 88% 30.11 in 3.0 mi West 4.6 mph - 0.01 in   Overcast
1:56 PM 50.0 °F 48.0 °F 93% 30.13 in 3.0 mi West 4.6 mph - 0.01 in   Overcast
2:34 PM 50.0 °F 48.2 °F 94% 30.12 in 3.0 mi SW 6.9 mph - 0.00 in Rain Light Rain
2:56 PM 51.1 °F 48.9 °F 92% 30.13 in 9.0 mi WSW 8.1 mph - 0.00 in Rain Light Rain
3:17 PM 51.8 °F 48.2 °F 88% 30.12 in 10.0 mi WSW 6.9 mph - 0.00 in   Overcast
3:56 PM 51.1 °F 48.0 °F 89% 30.14 in 10.0 mi SW 11.5 mph - 0.00 in   Overcast
4:56 PM 51.1 °F 46.9 °F 86% 30.13 in 10.0 mi SW 13.8 mph 19.6 mph N/A   Mostly Cloudy
5:21 PM 51.8 °F 46.4 °F 82% 30.13 in 10.0 mi SW 13.8 mph - 0.00 in Rain Light Rain
5:56 PM 51.1 °F 46.0 °F 83% 30.14 in 10.0 mi West 15.0 mph - 0.00 in Rain Light Rain
6:56 PM 48.9 °F 45.0 °F 86% 30.15 in 10.0 mi West 17.3 mph - 0.00 in Rain Light Rain
7:56 PM 48.0 °F 45.0 °F 89% 30.15 in 10.0 mi West 18.4 mph 27.6 mph 0.01 in   Mostly Cloudy
8:56 PM 48.0 °F 45.0 °F 89% 30.16 in 10.0 mi West 19.6 mph 27.6 mph N/A   Mostly Cloudy
9:56 PM 48.0 °F 45.0 °F 89% 30.17 in 10.0 mi WNW 17.3 mph - N/A   Mostly Cloudy
10:56 PM 48.9 °F 45.0 °F 86% 30.19 in 10.0 mi SSW 8.1 mph - N/A   Overcast
11:56 PM 48.9 °F 44.1 °F 83% 30.20 in 10.0 mi SSW 5.8 mph - N/A   Overcast